[[{"header":{"parameterUnit":"m.s-1","parameterCategory":1,"la1":30.2991,"la2":30.254,"lo1":-89.0895,"lo2":-89.0444,"dy":0.0017,"dx":0.0017,"nx":28,"ny":28,"refTime":"2023-06-18T21:00:00:Z","depth":0,"parameterNumber":2,"parameterNumberName":"U-component_of_WINDS"},"data":[0,0,0,0,0,0,0,0,0,0,0,0,0,0,0,0,0,0,0,0,0,0,0,0,0,0,0,0,0,0,0,0,0,0,0,0,0,0,0,0,0,0,0,0,0,0,0,0,0,0,0,0,0,0,0,0,0,0,3.5319,3.5319,0,3.5316,3.5316,3.5316,3.525,3.5248,3.5247,3.5245,3.5242,3.5243,3.5245,0,0,0,0,0,0,0,0,0,0,0,0,0,3.5266,3.5267,3.5319,3.5319,3.5319,3.5316,3.5316,3.5316,3.525,3.5248,3.5246,3.5244,3.5242,3.5243,3.5245,0,0,0,0,0,0,0,0,0,0,0,0,0,3.5278,3.5267,3.5319,3.5286,3.5283,3.5316,3.5316,3.5316,3.5251,3.5248,3.5246,3.5243,3.5241,3.5243,3.5245,3.531,0,0,3.5252,3.5253,0,0,0,0,0,0,0,0,3.5278,3.528,3.529,3.5288,3.5285,3.5281,3.5296,3.5314,3.5251,3.5263,3.5245,3.5242,3.5257,3.5258,3.5263,3.531,3.531,3.5252,3.5254,3.5255,3.5255,0,0,0,0,0,0,0,3.5277,3.528,3.5317,3.5291,3.5287,3.527,3.5269,3.5299,3.5274,3.5262,3.5257,3.5257,3.5255,3.5261,3.5262,3.531,3.5252,3.5254,3.5256,3.5257,3.5405,3.5408,0,0,0,0,0,0,3.5281,3.528,3.5317,3.5317,3.5275,3.5273,3.5272,3.5284,3.5274,3.527,3.526,3.5254,3.5258,3.526,3.5262,3.5333,3.5255,3.5257,3.5258,3.5403,3.5406,3.5409,0,0,0,0,0,0,3.528,3.5285,3.5318,3.5297,3.53,3.5277,3.5291,3.5286,3.5291,3.5272,3.5267,3.527,3.5256,3.5259,3.5297,3.5333,3.5258,3.526,3.54,3.5404,3.5407,3.5479,0,0,0,0,0,0,3.5279,3.5285,3.531,3.5298,3.5302,3.5354,3.5294,3.5288,3.5296,3.5289,3.5281,3.5277,3.5254,3.5295,3.53,3.5334,3.5262,3.5396,3.5401,3.5406,3.5474,3.5485,3.5495,0,0,0,0,0,3.5277,3.5331,3.5311,3.5316,3.5332,3.5356,3.5358,3.5331,3.5299,3.5323,3.531,3.5277,3.5329,3.5299,3.5304,3.534,3.5394,3.54,3.5406,3.5469,3.5483,3.5495,0,0,0,0,0,0,3.5348,3.5329,3.5307,3.5359,3.536,3.5345,3.5375,3.5347,3.5357,3.5351,3.5317,3.5315,3.5359,3.5354,3.5321,3.54,3.5355,3.5363,3.5402,3.5415,3.5425,3.5424,3.5263,0,0,0,0,0,3.5369,3.5391,3.5373,3.5421,3.5422,3.5399,3.5408,3.5387,3.5387,3.5387,3.5377,3.5377,3.5393,3.5404,3.5418,3.5473,3.5469,3.55,3.5511,3.552,3.5526,3.5552,3.5564,3.5428,3.5428,3.5428,0,0,3.5414,3.5407,3.5423,3.5435,3.5433,3.5455,3.54,3.5426,3.5441,3.5391,3.5425,3.5419,3.5417,3.5463,3.5483,3.546,3.5563,3.5528,3.5535,3.5536,3.5559,3.5572,3.5583,3.5432,3.5431,3.5431,0,0,3.5507,3.5505,3.5542,3.5541,3.5538,3.5521,3.5531,3.552,3.5513,3.5548,3.5509,3.5527,3.5556,3.5555,3.5558,3.5648,3.5617,3.5654,3.5709,3.5734,3.5745,3.5754,3.5783,3.5794,3.566,3.566,3.566,0,3.5563,3.5594,3.5565,3.5592,3.5598,3.5553,3.5589,3.559,3.5592,3.5596,3.5571,3.5603,3.5599,3.5643,3.5665,3.5671,3.5678,3.5653,3.5746,3.5755,3.5763,3.579,3.5801,3.5664,3.5664,3.5664,3.5663,0,3.5661,3.5684,3.5715,3.5716,3.5725,3.5758,3.5732,3.5745,3.5723,3.5709,3.5743,3.5736,3.5746,3.5756,3.5736,3.5796,3.5782,3.5752,3.5705,3.5781,3.5805,3.5816,3.567,3.5669,3.5668,3.5667,0,0,3.5798,3.5782,3.5793,3.5792,3.5785,3.5801,3.5831,3.584,3.585,3.5853,3.5875,3.59,3.5871,3.5875,3.5854,3.5876,3.5944,3.5843,3.5842,3.5859,3.6007,3.6027,3.604,3.5924,3.5926,3.5928,3.6006,0,3.5884,3.5933,3.5906,3.5958,3.5977,3.5934,3.5959,3.5957,3.5944,3.5958,3.5944,3.596,3.5923,3.5924,3.5945,3.5931,3.5972,3.5926,3.5942,3.5943,3.5941,3.6053,3.6076,3.615,3.6016,3.6017,3.6019,0,3.5992,3.5997,3.6051,3.6037,3.6044,3.6067,3.6071,3.6086,3.6082,3.6071,3.6074,3.6047,3.6073,3.603,3.6064,3.6033,3.6038,3.6032,3.6034,3.6033,3.5984,3.6052,3.6173,3.6183,3.6034,3.6033,3.6032,0,3.6081,3.6103,3.6136,3.6137,3.6123,3.614,3.6135,3.6129,3.6135,3.6139,3.6142,3.6151,3.6154,3.616,3.6135,3.6106,3.6172,3.6127,3.6162,3.6162,3.6176,3.6175,3.6296,3.6185,3.6184,3.6184,3.6184,0,3.6179,3.6212,3.6176,3.6197,3.6232,3.6201,3.6237,3.6228,3.6222,3.6239,3.6203,3.622,3.6187,3.62,3.618,3.621,3.6213,3.6204,3.6197,3.6205,3.6206,3.6206,3.6199,3.6187,3.6186,3.6186,3.6185,0,3.6284,3.6262,3.6295,3.6278,3.6275,3.6302,3.6287,3.6305,3.6289,3.6311,3.6314,3.6291,3.6304,3.628,3.6291,3.6277,3.6318,3.6306,3.6319,3.6314,3.6349,3.6345,3.6473,3.6487,3.6369,3.6371,3.6372,0,3.6346,3.6371,3.6356,3.6364,3.6361,3.6376,3.6381,3.6351,3.6359,3.6354,3.6372,3.6382,3.6388,3.6411,3.6394,3.6402,3.6387,3.6432,3.6388,3.6394,3.6384,3.6381,3.6382,3.644,3.6441,3.6442,3.6443,0,3.6458,3.6445,3.6454,3.6459,3.6466,3.6469,3.6469,3.6478,3.6446,3.6456,3.6468,3.6473,3.6483,3.6492,3.6495,3.6489,3.646,3.6457,3.6465,3.6472,3.6477,3.6471,3.634,3.6454,3.6453,3.6452,3.6452,3.6451,3.6541,3.6559,3.6551,3.6562,3.6558,3.6559,3.6573,3.6559,3.6569,3.6574,3.6556,3.6572,3.6565,3.6566,3.6563,3.6574,3.6554,3.6567,3.6569,3.6572,3.6576,3.6478,3.6575,3.6575,3.6575,3.6574,3.6574,0,3.6647,3.664,3.665,3.665,3.6658,3.6631,3.6629,3.6637,3.6651,3.6647,3.6653,3.6666,3.6675,3.6659,3.6664,3.6676,3.6663,3.6679,3.6676,3.6674,3.6595,3.6586,3.6689,3.6689,3.6689,3.6689,3.6689,3.6689,3.6704,3.6732,3.6718,3.6743,3.6735,3.675,3.6751,3.675,3.6746,3.6762,3.6769,3.6758,3.6748,3.6753,3.6759,3.6754,3.6756,3.6776,3.6766,3.6692,3.668,3.6669,3.6661,3.6777,3.6777,3.6843,3.6844,3.6844]},{"header":{"parameterUnit":"m.s-1","parameterCategory":1,"la1":30.2991,"la2":30.254,"lo1":-89.0895,"lo2":-89.0444,"dy":0.0017,"dx":0.0017,"nx":28,"ny":28,"refTime":"2023-06-18T21:00:00:Z","depth":0,"parameterNumber":3,"parameterNumberName":"V-component_of_WINDS"},"data":[0,0,0,0,0,0,0,0,0,0,0,0,0,0,0,0,0,0,0,0,0,0,0,0,0,0,0,0,0,0,0,0,0,0,0,0,0,0,0,0,0,0,0,0,0,0,0,0,0,0,0,0,0,0,0,0,0,0,7.6355,7.6356,0,7.6443,7.6444,7.6445,7.6396,7.6393,7.6391,7.6389,7.6471,7.6475,7.648,0,0,0,0,0,0,0,0,0,0,0,0,0,7.6136,7.614,7.6355,7.6356,7.6357,7.6442,7.6444,7.6445,7.6396,7.6393,7.639,7.6387,7.6469,7.6475,7.648,0,0,0,0,0,0,0,0,0,0,0,0,0,7.6228,7.6141,7.6355,7.6343,7.6343,7.6442,7.6444,7.6445,7.6397,7.6393,7.6389,7.6386,7.6468,7.6474,7.6481,7.6594,0,0,7.6501,7.6504,0,0,0,0,0,0,0,0,7.6223,7.6236,7.6344,7.6344,7.6344,7.6405,7.6397,7.6495,7.6398,7.6376,7.6388,7.6384,7.6451,7.6459,7.6483,7.6598,7.6601,7.6502,7.6506,7.6508,7.651,0,0,0,0,0,0,0,7.6216,7.6232,7.6389,7.6345,7.6346,7.6331,7.634,7.6415,7.6432,7.6378,7.6374,7.6386,7.6451,7.6477,7.6485,7.6602,7.6501,7.6507,7.6511,7.6514,7.6811,7.6815,0,0,0,0,0,0,7.6212,7.6227,7.6386,7.6392,7.6274,7.6338,7.6348,7.6389,7.6432,7.6435,7.6389,7.6383,7.6467,7.6477,7.6487,7.6621,7.6508,7.6515,7.6518,7.6807,7.6812,7.6816,0,0,0,0,0,0,7.6207,7.6227,7.6383,7.6309,7.6327,7.6345,7.6392,7.6392,7.6419,7.644,7.6442,7.6413,7.6465,7.6478,7.6568,7.6623,7.6518,7.6524,7.6803,7.6809,7.6814,7.689,0,0,0,0,0,0,7.6201,7.6225,7.6271,7.631,7.6332,7.6465,7.6395,7.6397,7.6431,7.6425,7.6463,7.6466,7.6463,7.6558,7.6574,7.663,7.6529,7.6798,7.6805,7.6812,7.6883,7.6898,7.6911,0,0,0,0,0,7.6194,7.6288,7.6273,7.6293,7.6389,7.6468,7.648,7.6477,7.6436,7.648,7.6493,7.6465,7.6615,7.6568,7.6585,7.6644,7.6794,7.6803,7.6812,7.6876,7.6895,7.6911,0,0,0,0,0,0,7.6252,7.6293,7.6277,7.6387,7.6425,7.646,7.6515,7.6497,7.6544,7.6536,7.6527,7.6536,7.6629,7.6646,7.6593,7.6755,7.6698,7.671,7.6741,7.6758,7.6772,7.6766,7.6534,0,0,0,0,0,7.6278,7.6342,7.6372,7.6466,7.6486,7.6498,7.6532,7.6526,7.6563,7.6578,7.6598,7.6634,7.6688,7.6724,7.6776,7.6885,7.6891,7.6934,7.6948,7.696,7.697,7.7027,7.7045,7.6845,7.6845,7.6845,0,0,7.6331,7.6362,7.6402,7.6479,7.6507,7.657,7.6511,7.6581,7.6626,7.6588,7.6674,7.669,7.6728,7.6828,7.6872,7.6844,7.7027,7.6971,7.698,7.6984,7.7037,7.7056,7.7073,7.6851,7.685,7.6849,0,0,7.6461,7.6492,7.6572,7.6602,7.6647,7.6654,7.6673,7.6711,7.6721,7.6807,7.6779,7.6832,7.6927,7.6955,7.6982,7.7121,7.7095,7.7137,7.721,7.7265,7.7281,7.7295,7.7342,7.736,7.7148,7.7148,7.7149,0,7.6521,7.6618,7.6615,7.6687,7.672,7.6691,7.677,7.6799,7.6857,7.6879,7.6847,7.6965,7.6989,7.7093,7.7127,7.715,7.717,7.7133,7.728,7.7294,7.7306,7.7351,7.737,7.7153,7.7153,7.7152,7.7152,0,7.6689,7.6756,7.6815,7.6874,7.6914,7.6989,7.6995,7.7035,7.7026,7.7035,7.7122,7.7149,7.7205,7.723,7.722,7.7332,7.7313,7.7281,7.7223,7.733,7.7372,7.739,7.716,7.7158,7.7157,7.7156,0,0,7.6858,7.6914,7.6936,7.6962,7.7008,7.7058,7.713,7.7187,7.7221,7.7261,7.732,7.7401,7.7371,7.7401,7.7394,7.7443,7.7548,7.7404,7.7405,7.7428,7.767,7.7693,7.7714,7.7532,7.7535,7.7538,7.7666,0,7.6989,7.7119,7.7118,7.7237,7.7297,7.7269,7.7331,7.7365,7.7375,7.7425,7.7435,7.7492,7.7449,7.7467,7.7514,7.7526,7.7596,7.7516,7.7584,7.7586,7.7574,7.7736,7.7761,7.7881,7.7683,7.7686,7.7688,0,7.716,7.7208,7.7334,7.737,7.7395,7.7452,7.7503,7.7552,7.7588,7.7592,7.7626,7.7611,7.7681,7.7622,7.7717,7.7662,7.769,7.7699,7.7704,7.7709,7.7643,7.7744,7.7919,7.7937,7.7714,7.7712,7.771,0,7.7268,7.7364,7.7452,7.7474,7.7519,7.7559,7.7579,7.7612,7.7646,7.7689,7.771,7.7761,7.7788,7.7826,7.7824,7.7781,7.7919,7.7861,7.7921,7.7922,7.7951,7.7949,7.8132,7.7971,7.7971,7.797,7.797,0,7.7414,7.7492,7.7501,7.7554,7.7639,7.7635,7.7718,7.7733,7.7763,7.7816,7.7794,7.7844,7.7839,7.7889,7.7887,7.7965,7.7978,7.798,7.7979,7.7982,7.7981,7.7998,7.7989,7.7975,7.7974,7.7973,7.7972,0,7.755,7.7559,7.7652,7.7687,7.7697,7.7758,7.7786,7.7835,7.7843,7.7911,7.7927,7.7938,7.7996,7.7998,7.8063,7.8061,7.8155,7.8145,7.8144,7.8141,7.8202,7.8195,7.8401,7.8427,7.8251,7.8253,7.8254,0,7.7642,7.7701,7.7742,7.7778,7.7801,7.7858,7.7893,7.789,7.7927,7.7972,7.8014,7.807,7.8114,7.8206,7.8218,7.8267,7.8257,7.8326,7.8264,7.8265,7.8256,7.8252,7.8256,7.8337,7.8339,7.8341,7.8342,0,7.7803,7.7805,7.7857,7.7911,7.7953,7.7995,7.8033,7.8062,7.8064,7.8105,7.8165,7.8199,7.8266,7.832,7.8367,7.8384,7.8363,7.8362,7.8378,7.8381,7.8377,7.8378,7.8175,7.8357,7.8355,7.8354,7.8353,7.8353,7.7919,7.7969,7.8006,7.8064,7.8093,7.8129,7.8177,7.8191,7.8242,7.8297,7.8292,7.8357,7.8389,7.8451,7.8472,7.852,7.8496,7.8521,7.8526,7.8532,7.8538,7.8371,7.8529,7.8529,7.8528,7.8528,7.8528,0,7.8077,7.81,7.8154,7.8209,7.8254,7.8232,7.8273,7.8311,7.8369,7.8402,7.8447,7.8513,7.8565,7.8582,7.8632,7.8667,7.8659,7.868,7.8677,7.8681,7.8557,7.8538,7.8687,7.8687,7.8687,7.8687,7.8687,7.8687,7.8165,7.8249,7.8255,7.8351,7.8372,7.8438,7.8463,7.8495,7.8521,7.8597,7.8641,7.8653,7.8678,7.8729,7.8775,7.8778,7.8797,7.8823,7.8822,7.8706,7.869,7.8674,7.8656,7.8827,7.8827,7.894,7.8942,7.8942]}]]